Regional Weather Roundup
Issued by NWS

Home | Current Version | Previous Version | Graphics & Text | Print | Product List | Glossary On
Versions: 1 2 3 4 5 6 7 8 9 10 11 12 13 14 15 16 17 18 19 20 21 22 23 24 25 26 27 28 29 30 31 32 33 34 35 36 37 38 39 40 41 42 43 44 45 46 47 48 49 50
000
ASUS43 KDMX 011107
RWRIA

WEATHER ROUNDUP FOR IOWA
NATIONAL WEATHER SERVICE DES MOINES IA
600 AM CDT WED JUL 01 2015

NOTE: "FAIR" INDICATES FEW OR NO CLOUDS BELOW 12,000 FEET WITH NO
SIGNIFICANT WEATHER AND/OR OBSTRUCTIONS TO VISIBILITY.

* - THESE STATIONS ARE NOT NWS STATIONS...THUS NOT UNDER NWS
QUALITY CONTROL.  THEY ALSO DO NOT REPORT WEATHER SUCH
AS PRECIPITATION OR FOG.

IAZ001>003-012>014-020>022-031>034-043>046-011200-
   NORTHWEST IOWA

CITY           SKY/WX    TMP DP  RH WIND       PRES   REMARKS
CARROLL *      PTCLDY    64  63  94 SE9       29.88F
CHEROKEE *     RAIN      64  63  94 SE7       29.88R
DENISON *      MOCLDY    66  64  94 E7        29.87R FOG
LE MARS *        N/A     66  64  94 CALM      29.88R
ORANGE CITY *  CLOUDY    63  61  94 N3        29.92R
SHELDON *      PTCLDY    63  63 100 E7        29.90R FOG
SIOUX CITY     CLOUDY    67  64  90 SE12      29.83F FOG
SPENCER        CLOUDY    63  60  90 E8        29.92R FOG
STORM LAKE *   CLOUDY    64  61  88 SE3       29.94R
$$

IAZ055>058-069>071-079>083-090>094-011200-
   SOUTHWEST IOWA

CITY           SKY/WX    TMP DP  RH WIND       PRES   REMARKS
ATLANTIC *     CLEAR     64  64 100 CALM      29.87F FOG
AUDUBON *      MOCLDY    64  63  94 E5        29.89S FOG
CLARINDA *     MOCLDY    68  68 100 S6        29.86S
COUNCIL BLFS * CLEAR     66  64  94 SE8       29.83F
CRESTON *      CLEAR     64  64 100 E8        29.87F FOG
HARLAN  *      PTCLDY    64  64 100 E7        29.88F FOG
LAMONI         MOCLDY    67  66  97 E5        29.88F FOG
RED OAK *      PTCLDY    68  66  94 CALM      29.84S
SHENANDOAH *   CLEAR     68  68 100 E9        29.83F
$$

IAZ047>049-059>061-072>074-084-011200-
   CENTRAL IOWA

CITY           SKY/WX    TMP DP  RH WIND       PRES   REMARKS
AMES           CLEAR     63  59  87 MISG      29.90S
ANKENY *       CLEAR     64  63  94 E3        29.90R
CHARITON *     CLOUDY    68  66  94 CALM      29.90S FOG
DES MOINES     MOCLDY    67  61  81 E7        29.89S
GRINNELL*      PTCLDY    63  59  88 E7        29.93R
KNOXVILLE *    MOCLDY    64  63  94 E3        29.90S FOG
MARSHALLTOWN   MOCLDY    61  58  90 E7        29.91S
PELLA *        CLEAR     64  63  94 CALM      29.91S
PERRY *          N/A     64  63  94 SE8       29.89F FOG
$$

IAZ004>006-015-016-023>025-035-036-011200-
   NORTH CENTRAL IOWA

CITY           SKY/WX    TMP DP  RH WIND       PRES   REMARKS
ALGONA *       PTCLDY    61  57  88 E9        29.92S
CLARION *      CLEAR     59  57  94 E10       29.92R
ESTHERVILLE    CLEAR     57  56  96 NE5       29.93R
FORT DODGE *   CLEAR     61  57  88 E7        29.92R
MASON CITY     CLEAR     56  54  93 E5        29.96R
FOREST CITY *  CLEAR     55  54  94 E3        29.95R
IOWA FALLS *     N/A     59  57  94 E6        29.94R
$$

IAZ007>011-017>019-026>030-037>042-050>054-066-011200-
   NORTHEAST IOWA

CITY           SKY/WX    TMP DP  RH WIND       PRES   REMARKS
CEDAR RAPIDS   PTCLDY    59  57  93 E8        29.92R
CHARLES CITY * CLEAR     55  55 100 NE5       29.96R
CLINTON *      CLOUDY    61  57  88 E7        29.96R
DECORAH *        N/A    N/A N/A N/A MISG        N/A
DUBUQUE        CLEAR     56  53  90 NE7       29.94R
MONTICELLO *   CLEAR     55 N/A N/A CALM      29.93S
OELWEIN *      CLEAR     55  54  94 E5        29.95R
WATERLOO       CLEAR     56  54  93 E3        29.93R
$$

IAZ064-065-067-068-078-011200-
   EAST CENTRAL IOWA

CITY           SKY/WX    TMP DP  RH WIND       PRES   REMARKS
DAVENPORT      PTCLDY    59  57  93 N6        29.93R
IOWA CITY      MOCLDY    62  56  80 NE7       29.93R
MT. PLEASANT * MOCLDY    66  63  88 CALM      29.91R FOG
MUSCATINE *    PTCLDY    64  59  82 N7        29.92R
QUAD CITIES    PTCLDY    64  58  80 NE5       29.91R
$$

IAZ062-063-075>077-085>089-095>099-011200-
   SOUTHEAST IOWA

CITY           SKY/WX    TMP DP  RH WIND       PRES   REMARKS
BURLINGTON     MOCLDY    67  64  90 NE5       29.90R
FAIRFIELD *    CLOUDY    64  61  88 NE5       29.91R
FORT MADISON * MOCLDY    64  64 100 CALM      29.91S FOG
KEOKUK *       MOCLDY    68  68 100 W6        29.90R FOG
OSKALOOSA *      N/A     63  61  94 CALM      29.91S FOG
CENTERVILLE *  MOCLDY    66  66 100 CALM      29.92F
OTTUMWA        MOCLDY    63  62  97 E6        29.89R FOG
WASHINGTON *   PTCLDY    63  61  94 NE5       29.93R
$$

ABBREVIATIONS USED IN REMARKS
   TC - TEMPERATURES IN CELSIUS
  WCI - WIND CHILL INDEX
   HX - HEAT INDEX
  VSB - VISIBILITY
$$




USA.gov is the U.S. government's official web portal to all federal, state and local government web resources and services.